Location: Liscomb Game Sanctuary
(45.1633°N, 62.5575°W)
Time: 13:29:07

SeaSat 1 - Pass Details

Date: 22 February 2018
Orbit: 745 x 747 km, 108.0° (Epoch: 19 March)

Event Time Altitude Azimuth Distance (km) Brightness Sun altitude
Exits shadow 19:10:27 14° 134° (SE) 1,989 4.2 -15.3°
Maximum altitude 19:14:35 59° 58° (ENE) 864 2.5 -16.0°
Drops below altitude 10° 19:19:26 10° 339° (NNW) 2,273 5.2 -16.8°
Sets 19:21:44 0° 336° (NNW) 3,201 6.1 -17.2°
